Dallas/Ft Worth, TX

11:01 PM CDT on June 25, 2017 (GMT -0500)
Dallas-Fort Worth International

Weather History for KDFW - December, 2013

Change the Weather History Date:

Friday, December 27, 2013

  Actual Average Record
Temperature  
Mean Temperature 45 °F 46 °F  
Max Temperature 58 °F 56 °F 82 °F (2005)
Min Temperature 32 °F 36 °F 19 °F (1925)
Degree Days  
Heating Degree Days 20 20  
Month to date heating degree days 576 479  
Since 1 July heating degree days 977 833  
Cooling Degree Days 0 0  
Month to date cooling degree days 0 0  
Year to date cooling degree days 2930 2752  
Moisture  
Dew Point 33 °F    
Average Humidity 65    
Maximum Humidity 89    
Minimum Humidity 40    
Precipitation  
Precipitation 0.00 in 0.07 in 1.79 in (2015)
Month to date precipitation 2.76 2.26  
Year to date precipitation 29.40 35.85  
Snow  
Snow 0.00 in 0.10 in T in (2000)
Month to date snowfall 2.1 0.3  
Since 1 July snowfall 2.1 0.3  
Snow Depth 0.00 in    
Sea Level Pressure  
Sea Level Pressure 30.38 in    
Wind  
Wind Speed 2 mph (WNW)    
Max Wind Speed 8 mph    
Max Gust Speed 10 mph    
Visibility 9 miles    
Events      
T = Trace of Precipitation, MM = Missing Value Source: NWS Daily Summary

Daily Weather History Graph

Daily Weather History Graph

Search for Another Location

Airport or City:

Trip Planner

Search our weather history database for the weather conditions in past years. The results will help you decide how hot, cold, wet, or windy it might be!

Date:

Astronomy

Dec. 27, 2013 Rise Set
Actual Time 7:29 AM CST 5:29 PM CST
Civil Twilight 7:02 AM CST 5:56 PM CST
Nautical Twilight 6:31 AM CST 6:27 PM CST
Astronomical Twilight 6:01 AM CST 6:57 PM CST
Moon 2:12 AM CST (12/27) 1:31 PM CST (12/27)
Length of Visible Light 10h 54m
Length of Day
9h 59m
Waning Crescent, 28% of the Moon is Illuminated
Dec 27
Waning Crescent
Jan 1
New
Jan 7
First Quarter
Jan 15
Full
Jan 23
Last Quarter

Hourly Weather History & Observations

Time (CST) Temp. Windchill Dew Point Humidity Pressure Visibility Wind Dir Wind Speed Gust Speed Precip Events Conditions
12:53 AM 37.9 °F - 30.9 °F 76% 30.39 in 10.0 mi Calm Calm - N/A   Mostly Cloudy
1:53 AM 35.1 °F - 30.0 °F 82% 30.38 in 9.0 mi Calm Calm - N/A   Mostly Cloudy
2:53 AM 33.1 °F - 30.0 °F 89% 30.39 in 9.0 mi Calm Calm - N/A   Mostly Cloudy
3:53 AM 36.0 °F - 32.0 °F 86% 30.39 in 10.0 mi Calm Calm - N/A   Mostly Cloudy
4:53 AM 32.0 °F 26.4 °F 26.1 °F 79% 30.39 in 10.0 mi North 5.8 mph - N/A   Scattered Clouds
5:53 AM 32.0 °F - 28.0 °F 85% 30.40 in 10.0 mi Calm Calm - N/A   Scattered Clouds
6:53 AM 33.1 °F 28.7 °F 28.9 °F 85% 30.42 in 10.0 mi North 4.6 mph - N/A   Mostly Cloudy
7:53 AM 35.1 °F 32.2 °F 30.9 °F 85% 30.43 in 6.0 mi NW 3.5 mph - N/A   Mostly Cloudy
8:53 AM 41.0 °F - 34.0 °F 76% 30.44 in 6.0 mi Calm Calm - N/A   Haze
9:53 AM 45.0 °F - 36.0 °F 71% 30.46 in 7.0 mi Calm Calm - N/A   Mostly Cloudy
10:53 AM 50.0 °F - 37.0 °F 61% 30.45 in 7.0 mi Calm Calm - N/A   Mostly Cloudy
11:53 AM 53.1 °F - 37.0 °F 55% 30.43 in 8.0 mi SSE 8.1 mph - N/A   Mostly Cloudy
12:53 PM 54.0 °F - 35.1 °F 49% 30.39 in 10.0 mi Calm Calm - N/A   Mostly Cloudy
1:53 PM 55.0 °F - 35.1 °F 47% 30.38 in 10.0 mi Calm Calm - N/A   Mostly Cloudy
2:53 PM 55.9 °F - 34.0 °F 44% 30.36 in 10.0 mi Calm Calm - N/A   Mostly Cloudy
3:53 PM 57.0 °F - 34.0 °F 42% 30.36 in 10.0 mi North 4.6 mph - N/A   Mostly Cloudy
4:53 PM 55.9 °F - 33.1 °F 42% 30.35 in 10.0 mi Calm Calm - N/A   Mostly Cloudy
5:53 PM 53.1 °F - 33.1 °F 47% 30.35 in 10.0 mi NNW 4.6 mph - N/A   Scattered Clouds
6:53 PM 48.0 °F - 33.1 °F 56% 30.36 in 10.0 mi Calm Calm - N/A   Mostly Cloudy
7:53 PM 48.9 °F - 34.0 °F 56% 30.36 in 10.0 mi Calm Calm - N/A   Mostly Cloudy
8:53 PM 48.9 °F - 35.1 °F 59% 30.36 in 10.0 mi Calm Calm - N/A   Mostly Cloudy
9:53 PM 45.0 °F 43.5 °F 35.1 °F 68% 30.35 in 10.0 mi South 3.5 mph - N/A   Scattered Clouds
10:53 PM 42.1 °F 38.4 °F 34.0 °F 73% 30.34 in 10.0 mi SSW 5.8 mph - N/A   Scattered Clouds
11:53 PM 43.0 °F 38.8 °F 36.0 °F 76% 30.32 in 10.0 mi SW 6.9 mph - N/A   Mostly Cloudy